timestamp,wind_dir_avg,wind_spd_avg,wind_spd_max_dir,wind_spd_gust,battery_voltage,lat,long
2023-12-25 00:04:00+00:00,292.0,6.06,282.0,9.89,12.33,47.59359,-54.27349
2023-12-25 00:14:00+00:00,292.0,7.75,286.0,10.16,12.33,47.59359,-54.27349
2023-12-25 00:24:00+00:00,310.0,8.38,303.0,11.28,12.33,47.59359,-54.27349
2023-12-25 00:34:00+00:00,303.0,5.09,284.0,7.97,12.33,47.59359,-54.27349
2023-12-25 00:44:00+00:00,301.0,6.83,302.0,10.93,12.33,47.59359,-54.27349
2023-12-25 00:54:00+00:00,300.0,9.78,299.0,10.98,12.33,47.59359,-54.27349
2023-12-25 01:04:00+00:00,300.0,9.07,305.0,11.44,12.33,47.59359,-54.27349
2023-12-25 01:14:00+00:00,293.0,9.34,295.0,10.82,12.33,47.59359,-54.27349
2023-12-25 01:24:00+00:00,296.0,8.26,303.0,11.33,12.33,47.59359,-54.27349
2023-12-25 01:34:00+00:00,289.0,8.76,286.0,10.85,12.33,47.59359,-54.27349
2023-12-25 01:44:00+00:00,301.0,10.01,302.0,11.99,12.33,47.59359,-54.27349
2023-12-25 01:54:00+00:00,305.0,8.71,298.0,11.48,12.33,47.59359,-54.27349
2023-12-25 02:04:00+00:00,303.0,10.34,307.0,12.17,12.33,47.59359,-54.27349
2023-12-25 02:14:00+00:00,303.0,10.57,302.0,11.97,12.33,47.59359,-54.27349
2023-12-25 02:24:00+00:00,302.0,10.14,302.0,11.82,12.33,47.59359,-54.27349
2023-12-25 02:34:00+00:00,301.0,9.9,301.0,11.88,12.33,47.59359,-54.27349
2023-12-25 02:44:00+00:00,308.0,9.15,303.0,11.43,12.33,47.59359,-54.27349
2023-12-25 02:54:00+00:00,316.0,7.15,305.0,10.39,12.33,47.59359,-54.27349
2023-12-25 03:04:00+00:00,317.0,7.22,301.0,10.66,12.33,47.59359,-54.27349
2023-12-25 03:14:00+00:00,323.0,6.49,325.0,7.39,12.25,47.59359,-54.27349
2023-12-25 03:24:00+00:00,341.0,7.13,339.0,8.22,12.25,47.59359,-54.27349
2023-12-25 03:34:00+00:00,338.0,7.81,336.0,9.2,12.25,47.59359,-54.27349
2023-12-25 03:44:00+00:00,353.0,8.56,341.0,9.79,12.25,47.59359,-54.27349
2023-12-25 03:54:00+00:00,357.0,7.09,357.0,8.86,12.25,47.59359,-54.27349
2023-12-25 04:04:00+00:00,342.0,7.22,350.0,8.91,12.25,47.59359,-54.27349
2023-12-25 04:14:00+00:00,349.0,9.34,347.0,11.32,12.25,47.59359,-54.27349
2023-12-25 04:24:00+00:00,359.0,8.72,2.0,9.85,12.25,47.59359,-54.27349
2023-12-25 04:34:00+00:00,4.0,8.66,6.0,9.85,12.25,47.59359,-54.27349
2023-12-25 04:44:00+00:00,1.0,8.58,356.0,10.19,12.25,47.59359,-54.27349
2023-12-25 04:54:00+00:00,359.0,8.77,358.0,10.23,12.25,47.59359,-54.27349
2023-12-25 05:04:00+00:00,343.0,8.57,344.0,9.63,12.25,47.59359,-54.27349
2023-12-25 05:14:00+00:00,345.0,9.54,344.0,10.64,12.25,47.59359,-54.27349
2023-12-25 05:24:00+00:00,345.0,8.13,346.0,9.2,12.25,47.59359,-54.27349
2023-12-25 05:34:00+00:00,345.0,6.78,341.0,8.13,12.25,47.59359,-54.27349
2023-12-25 05:44:00+00:00,337.0,5.99,339.0,6.92,12.25,47.59359,-54.27349
2023-12-25 05:54:00+00:00,338.0,5.63,341.0,6.84,12.25,47.59359,-54.27349
2023-12-25 06:04:00+00:00,345.0,6.12,347.0,7.44,12.25,47.59359,-54.27349
2023-12-25 06:14:00+00:00,334.0,5.64,343.0,6.31,12.17,47.59359,-54.27349
2023-12-25 06:24:00+00:00,325.0,5.65,323.0,6.49,12.17,47.59359,-54.27349
2023-12-25 06:34:00+00:00,325.0,5.27,332.0,5.89,12.17,47.59359,-54.27349
2023-12-25 06:44:00+00:00,324.0,6.15,325.0,6.96,12.17,47.59359,-54.27349
2023-12-25 06:54:00+00:00,336.0,6.93,335.0,7.91,12.17,47.59359,-54.27349
2023-12-25 07:04:00+00:00,343.0,6.69,344.0,7.43,12.17,47.59359,-54.27349
2023-12-25 07:14:00+00:00,337.0,6.74,336.0,7.81,12.17,47.59359,-54.27349
2023-12-25 07:24:00+00:00,342.0,7.79,345.0,8.46,12.17,47.59359,-54.27349
2023-12-25 07:34:00+00:00,354.0,9.06,354.0,10.43,12.17,47.59359,-54.27349
2023-12-25 07:44:00+00:00,347.0,7.38,348.0,8.88,12.17,47.59359,-54.27349
2023-12-25 07:54:00+00:00,339.0,8.39,340.0,9.48,12.17,47.59359,-54.27349
2023-12-25 08:04:00+00:00,345.0,7.66,350.0,8.81,12.17,47.59359,-54.27349
2023-12-25 08:14:00+00:00,329.0,6.56,329.0,7.55,12.17,47.59359,-54.27349
2023-12-25 08:24:00+00:00,316.0,7.22,323.0,8.05,12.17,47.59359,-54.27349
2023-12-25 08:34:00+00:00,319.0,6.37,321.0,7.54,12.17,47.59359,-54.27349
2023-12-25 08:44:00+00:00,325.0,6.54,325.0,7.51,12.17,47.59359,-54.27349
2023-12-25 08:54:00+00:00,330.0,6.95,328.0,8.31,12.17,47.59359,-54.27349
2023-12-25 09:04:00+00:00,342.0,6.93,337.0,8.84,12.17,47.59359,-54.27349
2023-12-25 09:14:00+00:00,332.0,7.31,324.0,8.73,12.17,47.59359,-54.27349
2023-12-25 09:24:00+00:00,332.0,6.61,324.0,7.89,12.17,47.59359,-54.27349
2023-12-25 09:34:00+00:00,329.0,6.61,336.0,7.75,12.17,47.59359,-54.27349
2023-12-25 09:44:00+00:00,331.0,6.51,330.0,7.44,12.17,47.59359,-54.27349
2023-12-25 09:54:00+00:00,326.0,6.46,329.0,7.49,12.17,47.59359,-54.27349
2023-12-25 10:04:00+00:00,325.0,7.35,320.0,8.86,12.17,47.59359,-54.27349
2023-12-25 10:14:00+00:00,329.0,6.77,318.0,8.59,12.17,47.59359,-54.27349
2023-12-25 10:24:00+00:00,327.0,6.74,315.0,7.88,12.17,47.59359,-54.27349
2023-12-25 10:34:00+00:00,326.0,6.98,319.0,8.47,12.17,47.59359,-54.27349
2023-12-25 10:44:00+00:00,319.0,6.21,312.0,7.95,12.17,47.59359,-54.27349
2023-12-25 10:54:00+00:00,346.0,4.46,321.0,5.56,12.17,47.59359,-54.27349
2023-12-25 11:04:00+00:00,356.0,5.26,358.0,6.1,12.17,47.59359,-54.27349
2023-12-25 11:14:00+00:00,9.0,4.87,356.0,5.88,12.09,47.59359,-54.27349
2023-12-25 11:24:00+00:00,350.0,4.24,317.0,6.0,12.09,47.59359,-54.27349
2023-12-25 11:34:00+00:00,321.0,4.66,307.0,6.53,12.09,47.59359,-54.27349
2023-12-25 11:44:00+00:00,315.0,3.96,292.0,5.82,12.09,47.59359,-54.27349
2023-12-25 11:54:00+00:00,320.0,4.37,313.0,5.54,12.09,47.59359,-54.27349
2023-12-25 12:04:00+00:00,306.0,2.96,313.0,4.62,12.09,47.59359,-54.27349
2023-12-25 12:14:00+00:00,341.0,2.48,329.0,3.27,13.84,47.59359,-54.27349
2023-12-25 12:24:00+00:00,298.0,2.25,301.0,3.09,13.84,47.59359,-54.27349
2023-12-25 12:34:00+00:00,311.0,3.35,312.0,4.02,13.84,47.59359,-54.27349
2023-12-25 12:44:00+00:00,286.0,4.88,282.0,5.59,13.84,47.59359,-54.27349
2023-12-25 12:54:00+00:00,298.0,5.16,300.0,6.36,13.84,47.59359,-54.27349
2023-12-25 13:04:00+00:00,306.0,5.42,308.0,6.12,13.84,47.59359,-54.27349
2023-12-25 13:14:00+00:00,316.0,4.95,318.0,6.19,13.6,47.59359,-54.27349
2023-12-25 13:24:00+00:00,319.0,5.5,320.0,6.69,13.6,47.59359,-54.27349
2023-12-25 13:34:00+00:00,312.0,4.07,313.0,4.79,13.6,47.59359,-54.27349
2023-12-25 13:44:00+00:00,306.0,4.25,300.0,4.98,13.6,47.59359,-54.27349
2023-12-25 13:54:00+00:00,310.0,3.63,298.0,4.49,13.6,47.59359,-54.27349
2023-12-25 14:04:00+00:00,282.0,4.28,280.0,4.86,13.6,47.59359,-54.27349
2023-12-25 14:14:00+00:00,293.0,6.1,291.0,7.03,14.4,47.59359,-54.27349
2023-12-25 14:24:00+00:00,290.0,4.11,291.0,4.82,14.4,47.59359,-54.27349
2023-12-25 14:34:00+00:00,304.0,5.03,299.0,6.07,14.4,47.59359,-54.27349
2023-12-25 14:44:00+00:00,284.0,4.64,288.0,5.56,14.4,47.59359,-54.27349
2023-12-25 14:54:00+00:00,302.0,5.25,302.0,5.85,14.4,47.59359,-54.27349
2023-12-25 15:04:00+00:00,318.0,5.4,318.0,6.71,14.4,47.59359,-54.27349
2023-12-25 15:14:00+00:00,308.0,4.58,314.0,5.12,14.4,47.59359,-54.27349
2023-12-25 15:24:00+00:00,306.0,5.33,309.0,6.23,14.4,47.59359,-54.27349
2023-12-25 15:34:00+00:00,303.0,4.45,307.0,5.18,14.4,47.59359,-54.27349
2023-12-25 15:44:00+00:00,312.0,3.92,309.0,4.52,14.4,47.59359,-54.27349
2023-12-25 15:54:00+00:00,326.0,5.49,325.0,6.41,14.4,47.59359,-54.27349
2023-12-25 16:04:00+00:00,324.0,6.8,325.0,7.62,14.4,47.59359,-54.27349
2023-12-25 16:14:00+00:00,319.0,6.97,319.0,8.27,14.0,47.59359,-54.27349
2023-12-25 16:24:00+00:00,320.0,7.31,321.0,8.28,14.0,47.59359,-54.27349
2023-12-25 16:34:00+00:00,310.0,7.09,308.0,7.89,14.0,47.59359,-54.27349
2023-12-25 16:44:00+00:00,317.0,5.74,320.0,6.41,14.0,47.59359,-54.27349
2023-12-25 16:54:00+00:00,308.0,4.88,315.0,5.67,14.0,47.59359,-54.27349
2023-12-25 17:04:00+00:00,309.0,4.81,316.0,5.54,14.0,47.59359,-54.27349
2023-12-25 17:14:00+00:00,305.0,4.07,308.0,4.58,14.32,47.59359,-54.27349
2023-12-25 17:24:00+00:00,309.0,4.49,307.0,5.21,14.32,47.59359,-54.27349
2023-12-25 17:34:00+00:00,299.0,3.61,295.0,4.29,14.32,47.59359,-54.27349
2023-12-25 17:44:00+00:00,314.0,3.51,319.0,4.23,14.32,47.59359,-54.27349
2023-12-25 17:54:00+00:00,310.0,2.79,315.0,3.81,14.32,47.59359,-54.27349
2023-12-25 18:04:00+00:00,325.0,4.11,316.0,5.04,14.32,47.59359,-54.27349
2023-12-25 18:14:00+00:00,317.0,4.01,323.0,4.76,13.68,47.59359,-54.27349
2023-12-25 18:24:00+00:00,316.0,4.1,319.0,4.59,13.68,47.59359,-54.27349
2023-12-25 18:34:00+00:00,301.0,3.59,316.0,4.49,13.68,47.59359,-54.27349
2023-12-25 18:44:00+00:00,294.0,3.07,295.0,3.55,13.68,47.59359,-54.27349
2023-12-25 18:54:00+00:00,288.0,4.48,289.0,5.02,13.68,47.59359,-54.27349
2023-12-25 19:04:00+00:00,305.0,4.22,309.0,4.97,13.68,47.59359,-54.27349
2023-12-25 19:14:01+00:00,304.0,4.4,308.0,5.15,13.6,47.59359,-54.27349
2023-12-25 19:24:01+00:00,313.0,4.2,312.0,4.68,13.6,47.59359,-54.27349
2023-12-25 19:34:01+00:00,286.0,4.35,287.0,5.01,13.6,47.59359,-54.27349
2023-12-25 19:44:01+00:00,299.0,3.86,307.0,4.32,13.6,47.59359,-54.27349
2023-12-25 19:54:01+00:00,307.0,4.42,313.0,4.88,13.6,47.59359,-54.27349
2023-12-25 20:04:01+00:00,302.0,3.86,304.0,4.71,13.6,47.59359,-54.27349
2023-12-25 20:14:00+00:00,308.0,4.06,305.0,4.78,12.65,47.59359,-54.27349
2023-12-25 20:24:00+00:00,305.0,4.51,305.0,5.01,12.65,47.59359,-54.27349
2023-12-25 20:34:00+00:00,308.0,4.38,310.0,4.66,12.65,47.59359,-54.27349
2023-12-25 20:44:00+00:00,306.0,4.74,311.0,5.22,12.65,47.59359,-54.27349
2023-12-25 20:54:00+00:00,290.0,4.12,288.0,4.57,12.65,47.59359,-54.27349
2023-12-25 21:04:00+00:00,306.0,4.0,305.0,4.53,12.65,47.59359,-54.27349
2023-12-25 21:14:00+00:00,298.0,4.22,298.0,4.65,12.41,47.59359,-54.27349
2023-12-25 21:24:00+00:00,310.0,4.19,313.0,4.87,12.41,47.59359,-54.27349
2023-12-25 21:34:00+00:00,318.0,2.86,318.0,3.53,12.41,47.59359,-54.27349
2023-12-25 21:44:00+00:00,313.0,2.94,313.0,3.45,12.41,47.59359,-54.27349
2023-12-25 21:54:00+00:00,354.0,2.45,353.0,3.01,12.41,47.59359,-54.27349
2023-12-25 22:04:00+00:00,296.0,2.44,291.0,3.12,12.41,47.59359,-54.27349
2023-12-25 22:14:00+00:00,298.0,2.98,304.0,3.47,12.41,47.59359,-54.27349
2023-12-25 22:24:00+00:00,298.0,2.7,292.0,3.18,12.41,47.59359,-54.27349
2023-12-25 22:34:00+00:00,286.0,3.4,296.0,3.74,12.41,47.59359,-54.27349
2023-12-25 22:44:00+00:00,271.0,3.27,270.0,3.96,12.41,47.59359,-54.27349
2023-12-25 22:54:00+00:00,265.0,3.56,262.0,3.94,12.41,47.59359,-54.27349
2023-12-25 23:04:00+00:00,261.0,3.58,262.0,3.91,12.41,47.59359,-54.27349
2023-12-25 23:14:01+00:00,272.0,3.5,269.0,4.05,12.33,47.59359,-54.27349
2023-12-25 23:24:01+00:00,267.0,3.75,262.0,4.06,12.33,47.59359,-54.27349
2023-12-25 23:34:01+00:00,267.0,3.85,266.0,4.11,12.33,47.59359,-54.27349
2023-12-25 23:44:01+00:00,272.0,4.32,274.0,4.74,12.33,47.59359,-54.27349
2023-12-25 23:54:01+00:00,278.0,4.18,280.0,4.68,12.33,47.59359,-54.27349
